Date String (YYYY-MM-DD hh:mm:ss) UTC,Instrument flags,absolute air pressure of the measurement (hPa),sample flow rate (lpm),inlet stack bypass flow (lpm),air temperature of the measurement (°C),ambient temperature measured by the external sensor (°C),aerosol sample conditioner tube jacket temperature (°C),OPC LED temperature (°C),internal box temperature (°C),relative humidity of the measurement (%),span deviation,mass concentration of particles derived from Lorenz-Mie calculation of OPC scattering (μg/m³),mass concentration of particles derived from Lorenz-Mie calculation of OPC scattering (μg/m³),mass concentration of particles derived from Lorenz-Mie calculation of OPC scattering (μg/m³)
DateTimeUTC,F1_M11,P_M11,Q1_M11,Q2_M11,T1_M11,T2_M11,T3_M11,T4_M11,T5_M11,U1_M11,ZSPAN_M11,X2_M11,X0_M11,X1_M11
2024-04-18 14:00:00,SystemResetWarning,0834.5,5.01,000.00,021.4,020.8,000.0,030.0,023.3,019.8,0000.0,0003.77,0006.08,0003.30
2024-04-18 14:01:00,SystemResetWarning,0834.7,5.00,000.00,021.4,020.8,000.0,030.0,023.3,019.7,0000.0,0003.75,0005.92,0003.29
2024-04-18 14:02:00,SystemResetWarning,0835.1,4.99,000.00,021.4,020.8,000.0,030.0,023.3,019.7,0000.0,0003.74,0006.07,0003.30
2024-04-18 14:03:00,SystemResetWarning,0835.0,5.00,000.00,021.4,020.8,000.0,030.0,023.3,019.7,0000.0,0003.75,0006.17,0003.30
2024-04-18 14:04:00,SystemResetWarning,0834.7,5.02,000.00,021.4,020.8,000.0,030.0,023.3,019.7,0000.0,0003.75,0006.21,0003.30
2024-04-18 14:05:00,SystemResetWarning,0834.5,5.00,000.00,021.4,020.8,000.0,030.0,023.3,019.7,0000.0,0003.79,0006.31,0003.31
2024-04-18 14:06:00,SystemResetWarning,0834.4,4.99,000.00,021.4,020.8,000.0,030.0,023.3,019.7,0000.0,0003.80,0006.33,0003.32
2024-04-18 14:07:00,SystemResetWarning,0834.3,5.00,000.00,021.4,020.8,000.0,030.0,023.3,019.7,0000.0,0003.81,0006.42,0003.32
2024-04-18 14:08:00,SystemResetWarning,0834.4,5.00,000.00,021.4,020.8,000.0,030.0,023.3,019.7,0000.0,0003.85,0006.60,0003.32
2024-04-18 14:09:00,SystemResetWarning,0834.3,5.00,000.00,021.4,020.8,000.0,030.0,023.3,019.7,0000.0,0003.90,0006.79,0003.33
2024-04-18 14:10:00,SystemResetWarning,0834.5,5.00,000.00,021.4,020.8,000.0,030.0,023.3,019.7,0000.0,0003.93,0006.94,0003.34
2024-04-18 14:11:00,SystemResetWarning,0834.5,5.01,000.00,021.4,020.8,000.0,030.0,023.3,019.8,0000.0,0003.96,0007.07,0003.35
2024-04-18 14:12:00,SystemResetWarning,0834.5,5.01,000.00,021.4,020.8,000.0,030.0,023.3,019.9,0000.0,0003.97,0007.08,0003.36
2024-04-18 14:13:00,SystemResetWarning,0834.5,5.00,000.00,021.4,020.8,000.0,030.0,023.3,019.9,0000.0,0004.00,0006.94,0003.36
2024-04-18 14:14:00,SystemResetWarning,0834.5,4.99,000.00,021.4,020.8,000.0,030.0,023.3,019.9,0000.0,0004.00,0007.19,0003.37
2024-04-18 14:15:00,SystemResetWarning,0834.4,5.00,000.00,021.4,020.8,000.0,030.0,023.3,019.8,0000.0,0004.01,0007.57,0003.40
2024-04-18 14:16:00,SystemResetWarning,0834.5,5.00,000.00,021.4,020.8,000.0,030.0,023.3,019.8,0000.0,0003.96,0007.40,0003.40
2024-04-18 14:17:00,SystemResetWarning,0834.5,5.00,000.00,021.4,020.8,000.0,030.0,023.3,019.8,0000.0,0003.94,0007.32,0003.41
2024-04-18 14:18:00,SystemResetWarning,0834.7,5.00,000.00,021.4,020.8,000.0,030.0,023.3,019.9,0000.0,0003.95,0007.30,0003.42
2024-04-18 14:19:00,SystemResetWarning,0835.1,5.00,000.00,021.4,020.8,000.0,030.0,023.3,019.9,0000.0,0003.95,0007.28,0003.43
2024-04-18 14:20:00,SystemResetWarning,0835.2,5.01,000.00,021.4,020.8,000.0,030.0,023.3,019.9,0000.0,0003.97,0007.29,0003.45
2024-04-18 14:21:00,SystemResetWarning,0835.1,5.00,000.00,021.4,020.8,000.0,030.0,023.3,019.9,0000.0,0003.98,0007.23,0003.47
2024-04-18 14:22:00,SystemResetWarning,0834.7,5.00,000.00,021.4,020.8,000.0,030.0,023.3,019.9,0000.0,0003.97,0007.08,0003.49
2024-04-18 14:23:00,SystemResetWarning,0834.5,5.01,000.00,021.4,020.8,000.0,030.0,023.3,020.0,0000.0,0003.98,0007.02,0003.52
2024-04-18 14:24:00,SystemResetWarning,0834.6,4.99,000.00,021.4,020.8,000.0,030.0,023.3,020.0,0000.0,0003.97,0006.93,0003.54
2024-04-18 14:25:00,SystemResetWarning,0835.1,5.00,000.00,021.4,020.8,000.0,030.0,023.3,020.0,0000.0,0003.97,0006.35,0003.56
2024-04-18 14:26:00,SystemResetWarning,0834.8,5.00,000.00,021.4,020.8,000.0,030.0,023.3,020.0,0000.0,0003.94,0005.55,0003.55
2024-04-18 14:27:00,SystemResetWarning,0835.1,5.00,000.00,021.4,020.8,000.0,030.0,023.3,019.9,0000.0,0003.93,0005.54,0003.56
2024-04-18 14:28:00,SystemResetWarning,0835.0,5.00,000.00,021.4,020.8,000.0,030.0,023.3,019.8,0000.0,0003.94,0005.50,0003.59
2024-04-18 14:29:00,SystemResetWarning,0835.0,5.00,000.00,021.4,020.8,000.0,030.0,023.3,019.8,0000.0,0003.95,0005.48,0003.62
2024-04-18 14:30:00,SystemResetWarning,0835.1,5.00,000.00,021.4,020.8,000.0,030.0,023.3,019.8,0000.0,0003.96,0005.43,0003.64
2024-04-18 14:31:00,SystemResetWarning,0835.1,5.01,000.00,021.4,020.8,000.0,030.0,023.3,019.8,0000.0,0003.97,0005.44,0003.66
2024-04-18 14:32:00,SystemResetWarning,0835.1,5.00,000.00,021.4,020.8,000.0,030.0,023.3,019.8,0000.0,0003.98,0005.48,0003.66
2024-04-18 14:33:00,SystemResetWarning,0834.9,5.00,000.00,021.4,020.8,000.0,030.0,023.3,019.9,0000.0,0004.03,0005.70,0003.67
2024-04-18 14:34:00,SystemResetWarning,0834.5,5.00,000.00,021.4,020.8,000.0,030.0,023.3,019.7,0000.0,0004.05,0005.84,0003.69
2024-04-18 14:35:00,SystemResetWarning,0834.5,5.00,000.00,021.4,020.8,000.0,030.0,023.3,019.8,0000.0,0004.10,0006.13,0003.71
2024-04-18 14:36:00,SystemResetWarning,0834.9,4.99,000.00,021.4,020.7,000.0,030.0,023.2,019.7,0000.0,0004.11,0006.14,0003.73
2024-04-18 14:37:00,SystemResetWarning,0834.9,4.99,000.00,021.4,020.7,000.0,029.9,023.2,019.6,0000.0,0004.13,0006.26,0003.74
2024-04-18 14:38:00,SystemResetWarning,0834.9,5.00,000.00,021.4,020.7,000.0,029.9,023.3,019.5,0000.0,0004.18,0006.51,0003.76
2024-04-18 14:39:00,SystemResetWarning,0834.9,5.01,000.00,021.4,020.7,000.0,030.0,023.2,019.3,0000.0,0004.19,0006.64,0003.74
2024-04-18 14:40:00,SystemResetWarning,0835.1,5.01,000.00,021.3,020.7,000.0,030.0,023.2,019.2,0000.0,0004.16,0006.61,0003.71
2024-04-18 14:41:00,SystemResetWarning,0835.1,5.00,000.00,021.3,020.7,000.0,029.9,023.2,019.1,0000.0,0004.16,0006.64,0003.69
2024-04-18 14:42:00,SystemResetWarning,0834.8,5.00,000.00,021.3,020.7,000.0,029.9,023.2,019.0,0000.0,0004.13,0006.59,0003.67
2024-04-18 14:43:00,SystemResetWarning,0834.6,4.99,000.00,021.3,020.7,000.0,029.9,023.2,019.0,0000.0,0004.12,0006.63,0003.65
2024-04-18 14:44:00,SystemResetWarning,0834.6,5.00,000.00,021.3,020.7,000.0,029.9,023.2,019.0,0000.0,0004.11,0006.67,0003.64
2024-04-18 14:45:00,SystemResetWarning,0834.6,5.00,000.00,021.3,020.7,000.0,029.9,023.2,018.9,0000.0,0004.05,0006.53,0003.61
2024-04-18 14:46:00,SystemResetWarning,0834.7,5.00,000.00,021.3,020.6,000.0,029.9,023.2,018.9,0000.0,0004.01,0006.71,0003.57
2024-04-18 14:47:00,SystemResetWarning,0834.8,4.99,000.00,021.3,020.6,000.0,029.9,023.2,018.9,0000.0,0003.97,0006.55,0003.54
2024-04-18 14:48:00,SystemResetWarning,0834.8,5.00,000.00,021.3,020.6,000.0,029.9,023.2,018.9,0000.0,0003.97,0006.60,0003.51
2024-04-18 14:49:00,SystemResetWarning,0834.9,5.00,000.00,021.3,020.6,000.0,029.9,023.2,019.0,0000.0,0003.93,0006.43,0003.49
2024-04-18 14:50:00,SystemResetWarning,0835.0,5.00,000.00,021.3,020.6,000.0,029.9,023.1,019.0,0000.0,0003.89,0006.25,0003.47
2024-04-18 14:51:00,SystemResetWarning,0835.1,5.00,000.00,021.3,020.6,000.0,029.9,023.1,019.0,0000.0,0003.91,0006.31,0003.48
2024-04-18 14:52:00,SystemResetWarning,0835.0,5.01,000.00,021.3,020.6,000.0,029.9,023.1,019.1,0000.0,0003.90,0006.35,0003.48
2024-04-18 14:53:00,SystemResetWarning,0834.8,5.01,000.00,021.3,020.6,000.0,029.9,023.1,019.2,0000.0,0003.86,0006.29,0003.48
2024-04-18 14:54:00,SystemResetWarning,0835.1,5.00,000.00,021.3,020.6,000.0,029.9,023.1,019.1,0000.0,0003.84,0006.25,0003.49
2024-04-18 14:55:00,SystemResetWarning,0834.7,5.01,000.00,021.3,020.5,000.0,029.9,023.1,019.1,0000.0,0003.80,0006.58,0003.47
2024-04-18 14:56:00,SystemResetWarning,0834.9,5.00,000.00,021.2,020.5,000.0,029.9,023.1,019.1,0000.0,0003.79,0006.48,0003.47
2024-04-18 14:57:00,SystemResetWarning,0834.6,5.00,000.00,021.2,020.5,000.0,029.9,023.1,019.1,0000.0,0003.79,0006.26,0003.47
2024-04-18 14:58:00,SystemResetWarning,0834.9,5.00,000.00,021.2,020.5,000.0,029.9,023.1,019.1,0000.0,0003.78,0006.04,0003.46
2024-04-18 14:59:00,SystemResetWarning,0834.8,5.00,000.00,021.2,020.5,000.0,029.9,023.1,019.2,0000.0,0003.74,0006.02,0003.44
